This is the latest recevied weather packets stored in our database for station/object F1AGU-13. If no packets are shown the sender has not sent any weather packets the latest 10 day(s).
| Time | Temp. | Humidity | Pressure | Rain* | Wind** | Luminosity | Snow |
|---|---|---|---|---|---|---|---|
| 1787695216 | 15.56° C | 83% | 1018.7 hPa | 0 mm | - | - | - |
| 1787694617 | 16.11° C | 83% | 1018.6 hPa | 0 mm | - | - | - |
| 1787694017 | 16.11° C | 83% | 1018.8 hPa | 0 mm | - | - | - |
| 1787693417 | 16.11° C | 83% | 1018.4 hPa | 0 mm | - | - | - |
| 1787692817 | 16.11° C | 82% | 1018.3 hPa | 0 mm | - | - | - |
| 1787692217 | 16.11° C | 82% | 1018.1 hPa | 0 mm | - | - | - |
| 1787691616 | 16.67° C | 82% | 1017.8 hPa | 0 mm | - | - | - |
| 1787691017 | 16.67° C | 81% | 1017.7 hPa | 0 mm | - | - | - |
| 1787690417 | 16.67° C | 81% | 1017.7 hPa | 0 mm | - | - | - |
| 1787689816 | 17.22° C | 80% | 1017.4 hPa | 0 mm | - | - | - |
| 1787689216 | 17.22° C | 80% | 1017.3 hPa | 0 mm | - | - | - |
| 1787688616 | 17.22° C | 81% | 1017.3 hPa | 0 mm | - | - | - |
| 1787688016 | 17.22° C | 81% | 1016.7 hPa | 0 mm | - | - | - |
| 1787687416 | 17.78° C | 80% | 1016.8 hPa | 0 mm | - | - | - |
| 1787686816 | 17.78° C | 79% | 1016.5 hPa | 0 mm | - | - | - |
| 1787686216 | 17.78° C | 79% | 1016.4 hPa | 0 mm | - | - | - |
| 1787685616 | 18.33° C | 79% | 1016.3 hPa | 0 mm | - | - | - |
| 1787685016 | 18.33° C | 78% | 1016.2 hPa | 0 mm | - | - | - |
| 1787684417 | 18.33° C | 77% | 1016.1 hPa | 0 mm | - | - | - |
| 1787683816 | 18.89° C | 78% | 1016.1 hPa | 0 mm | - | - | - |
| 1787683216 | 18.89° C | 77% | 1016 hPa | 0 mm | - | - | - |
| 1787682616 | 19.44° C | 77% | 1015.9 hPa | 0 mm | - | - | - |
| 1787682016 | 19.44° C | 74% | 1015.8 hPa | 0 mm | - | - | - |
| 1787681416 | 20° C | 74% | 1015.9 hPa | 0 mm | - | - | - |
| 1787680816 | 20.56° C | 72% | 1015.8 hPa | 0 mm | - | - | - |
* Rain latest hour (hover to see other rain measurements)
** Current wind speed in m/s (hover to see current wind gust speed)